Tracking 20712 objects as of 29-May-2020
HD Live streaming from Space Station
objects crossing your sky now

IRIDIUM 33 DEB

Track IRIDIUM 33 DEB now!
10-day predictions


NORAD ID: 34350
Int'l Code: 1997-051ES
Perigee: 751.0 km
Apogee: 782.0 km
Inclination: 86.3 °
Period: 100.0 minutes
Semi major axis: 7137 km
RCS: 0.064 m2 (small)
Launch date: September 14, 1997
Source: United States (US)
Launch site: TYURATAM MISSILE AND SPACE COMPLEX (TTMTR)

Note: This is SATELLITE DEBRIS
aabbcc
Your satellite tracking list
Your tracking list is empty




NASA's NSSDC Master Catalog

Two Line Element Set (TLE):
1 34350U 97051ES  20149.77264067 +.00000193 +00000-0 +55215-4 0  9997
2 34350 086.3292 154.8015 0021649 340.9023 142.9451 14.39739334591359
Source of the keplerian elements: AFSPC